Погода в Виборге

Дания     56°27′17″N   9°23′07″E
темп.,
°C
ветер,
м/с
пор.,
м/с
влажн.,
%
обл.,
%
осадки,
мм/ч
давл.,
гПа
погр.,
м
2 марта, вт
вт201:00+3з410940 0.0 1033219
04:00+2з410950 0.0 1032230
07:00+2з49940 0.0 1032201
10:00+6з58760 0.0 1033344
13:00+9з47620 0.0 1033473
16:00+8з46630 0.0 1032432
19:00+4з35830 0.0 103199
22:00+3зюз33860 0.0 103158
3 марта, ср
ср301:00+2зюз33860 0.0 103043
04:00+2зюз23860 0.0 102830
07:00+1зюз22860 0.0 102722
10:00+5зюз34730 0.0 1025250
13:00+8з46640 0.0 1023532
16:00+7з69710 0.0 1020643
19:00+4з614881 0.0 1019579
22:00+5зсз8138648 0.0 1017641
4 марта, чт
чт401:00+3сз489072 0.0 1016206
04:00+1с3984100 0.0 1016267
07:00+2св81373100 0.0 1017679
10:00+2св61060100 0.0 1019843
13:00+4ссв574678 0.0 10211078
16:00+4с56490 0.0 10201147
19:000с36690 0.0 1021166
22:00−1ссз23710 0.0 102263
5 марта, пт
пт501:00−1ссз22670 0.0 102239
04:00−1с23610 0.0 102340
07:00−1с23557 0.0 102445
10:00+3с47350 0.0 10261606
13:00+4с563510 0.0 10272065
16:00+4ссз453916 0.0 10281819
19:00−1з34618 0.0 102884
22:00−1юз48670 0.0 1029203
6 марта, сб
сб601:00+1зюз5109729 0.2 1029541
04:00+2з5128597 0.3 1027531
07:00+2зсз5159094 0.3 1026723
10:00+5зсз9137188 0.0 10261234
13:00+5зсз10146985 0.1 10251248
16:00+5зсз11166976 0.0 10241136
19:00+4зсз11177969 0.0 10231068
22:00+4зсз91580100 0.0 10221015